User: anonymous   Login
Location: Ar Ranvel
(48.3000°N, 4.8833°W)
Time: 21:26:33
(UTC+00:00)
Language:

NOAA 14 DEB - Orbit

View from above orbital plane
View from above orbital plane
View from above satellite
View from above satellite

Ground track
Ground track

The orbit data is extracted from the following two-line orbital elements,

1 38732U 94089D   22022.50460955  .00000675  00000-0  32862-3 0  9997
2 38732  98.6879 111.9735 0015386  49.5181 310.7335 14.21407922492009
Epoch (UTC): 22 January 2022 12:06:38
Eccentricity: 0.0015386
inclination: 98.6879°
perigee height: 809 km
apogee height: 831 km
right ascension of ascending node: 111.9735°
argument of perigee: 49.5181°
revolutions per day: 14.21407922
mean anomaly at epoch: 310.7335°
orbit number at epoch: 49200

The dashed part of the orbit path shows where the satellite is in the earth's shadow,  

DLR